sat.trackr.live / text

‹ back to catalog

STARLINK-3863

NORAD 52465 · 2022-049Q

PAYLOAD ACTIVE UNKNOWN

§ Identity

Operator
Country
US
Launch date
2022-05-06
Launch site
AFETR
Launch vehicle
Mass (kg)
RCS (m²)

Purposes: comms

External: N2YO · Heavens-Above · Gunter

§ Orbital elements

Epoch: 2026-09-19T21:37:45.866784Z

Period
93.79 min
Inclination
53.1596°
Eccentricity
0.0001288
Mean motion
15.35414818 rev/d
Perigee alt
458.8 km
Apogee alt
460.6 km
Semi-major
6,837.8 km
B*
-2.2259e-5
RAAN
246.9975°
Arg perigee
85.4954°
Mean anomaly
274.6197°
Rev number
24,184

§ Raw data

STARLINK-38631 52465U 22049Q   26262.90122531 -.00001157  00000+0 -22259-4 0  99992 52465  53.1596 246.9975 0001288  85.4954 274.6197 15.35414818241844

JSON: /api/v1/satellites/52465 · /tle

For live sub-satellite position, see the globe view (requires WebGL).

§ Visibility from observer

Set your observer location to see the next 7 days of passes ≥ 10°. The values pass through the URL so the page stays shareable.

No JS? Fill the form by hand. The geolocation button needs JavaScript.